Other Surface Observations
Issued by NWS Jacksonville, FL

Home | Current Version | Previous Version | Text Only | Print | Product List | Glossary On
Versions: 1 2 3 4 5 6 7 8 9 10 11 12 13 14 15 16 17 18 19 20 21 22 23 24 25 26 27 28 29 30 31 32 33 34 35 36 37 38 39 40 41 42 43 44 45 46 47 48 49 50
000
SXUS52 KJAX 210310
OSOJAX
OTHER SURFACE OBSERVATIONS
NATIONAL WEATHER SERVICE JACKSONVILLE FL
1100 PM EDT SAT SEP 20 2014

FLZ020>025-030>033-035>038-040-210400-
...FLORIDA...

CITY           SKY/WX    TMP DP  RH WIND       PRES   REMARKS
CECIL FIELD    CLEAR     70  68  94 N6        29.97S
HERLONG FIELD  NOT AVBL
FERNANDINA BCH NOT AVBL
LAKE CITY      FAIR      68  68 100 N6        29.99R
JUNIPER SPGS   NOT AVBL
BUNNELL        FAIR      71  70  96 NW5       29.94R
KEYSTONE HGTS    N/A     72  70  94 N3        29.97S
$$

GAZ132>136-149>154-162>166-210400-
...GEORGIA...

CITY           SKY/WX    TMP DP  RH WIND       PRES   REMARKS
JESUP          FAIR      72  68  88 N3        29.99S
HOMERVILLE     FAIR      70  68  94 CALM      30.01R
SWAINSBORO     FAIR      68  68 100 CALM      30.02S
CORDELE        NOT AVBL
$$

PLEASE NOTE:  THESE OBSERVATIONS ARE NOT QUALITY CONTROLLED AND MAY
NOT BE AVAILABLE AT ALL TIMES.
$$



USA.gov is the U.S. government's official web portal to all federal, state and local government web resources and services.